Location: Dugenta
(41.1333°N, 14.4500°E)
Time: 14:14:17
(UTC+00:00)

Cosmos 2218 Rocket - Pass Details

Date: 03 March 2021
Orbit: 955 x 1007 km, 82.9° (Epoch: 12 April)

Event Time Altitude Azimuth Distance (km) Brightness Sun altitude
Rises 18:45:50 0° 183° (S) 3,716 7.0 -21.5°
Reaches altitude 10° 18:48:21 10° 182° (S) 2,773 6.3 -22.0°
Maximum altitude 18:54:45 83° 95° (E) 1,019 3.9 -23.1°
Drops below altitude 10° 19:01:10 10° 9° (N) 2,787 6.4 -24.3°
Sets 19:03:42 0° 9° (N) 3,737 7.1 -24.8°
